Location: Unspecified
(29.9680°N, 0.0000°E)
Time: 20:47:09
(UTC+00:00)

A-11 Canister half - Pass Details

Date: 25 June 2019
Orbit: 1526 x 1683 km, 47.3° (Epoch: 21 August)

Event Time Altitude Azimuth Distance (km) Brightness Sun altitude
Rises 07:54:48 0° 306° (NW) 4,695 11.2 34.9°
Reaches altitude 10° 07:58:22 10° 316° (NW) 3,701 10.8 35.7°
Maximum altitude 08:06:28 32° 17° (NNE) 2,384 10.7 37.4°
Drops below altitude 10° 08:14:34 10° 78° (ENE) 3,708 12.3 39.1°
Sets 08:18:07 0° 88° (E) 4,704 12.4 39.9°
